[[{"header":{"parameterUnit":"m.s-1","parameterCategory":1,"la1":30.2991,"la2":30.254,"lo1":-89.0895,"lo2":-89.0444,"dy":0.0017,"dx":0.0017,"nx":28,"ny":28,"refTime":"2024-05-26T21:00:00:Z","depth":0,"parameterNumber":2,"parameterNumberName":"U-component_of_WINDS"},"data":[0,0,0,0,0,0,0,0,0,0,0,0,0,0,0,0,0,0,0,0,0,0,0,0,0,0,0,0,0,0,0,0,0,0,0,0,0,0,0,0,0,0,0,0,0,0,0,0,0,0,0,0,0,0,0,0,0,0,0.7715,0.7715,0,0.7753,0.7754,0.7754,0.7755,0.7755,0.7754,0.7754,0.779,0.7792,0.7793,0,0,0,0,0,0,0,0,0,0,0,0,0,0.7639,0.764,0.7715,0.7715,0.7716,0.7753,0.7754,0.7754,0.7755,0.7755,0.7754,0.7754,0.779,0.7791,0.7793,0,0,0,0,0,0,0,0,0,0,0,0,0,0.7674,0.7641,0.7715,0.7721,0.7722,0.7753,0.7754,0.7754,0.7756,0.7755,0.7754,0.7754,0.7789,0.7791,0.7793,0.782,0,0,0.78,0.7801,0,0,0,0,0,0,0,0,0.7672,0.7677,0.7719,0.772,0.7722,0.7749,0.774,0.7776,0.7756,0.7743,0.7754,0.7753,0.7777,0.778,0.7789,0.7822,0.7823,0.78,0.7801,0.7802,0.7803,0,0,0,0,0,0,0,0.7669,0.7675,0.773,0.772,0.7721,0.7721,0.7725,0.7747,0.7763,0.7744,0.7744,0.7749,0.7777,0.7787,0.7789,0.7824,0.78,0.7802,0.7803,0.7804,0.7881,0.7882,0,0,0,0,0,0,0.7666,0.7673,0.7729,0.7731,0.7695,0.7723,0.7727,0.7741,0.7763,0.7766,0.7749,0.7749,0.7783,0.7787,0.7791,0.7824,0.7802,0.7804,0.7805,0.788,0.7881,0.7882,0,0,0,0,0,0,0.7665,0.7671,0.7727,0.7702,0.7709,0.7725,0.774,0.7742,0.7751,0.7767,0.7769,0.7756,0.7783,0.7788,0.7813,0.7825,0.7805,0.7807,0.7879,0.788,0.7882,0.7889,0,0,0,0,0,0,0.7662,0.7671,0.7682,0.7702,0.7711,0.775,0.774,0.7743,0.7755,0.7755,0.7774,0.7777,0.7783,0.781,0.7815,0.7827,0.7809,0.7878,0.788,0.7881,0.7888,0.7891,0.7893,0,0,0,0,0,0.766,0.7682,0.7682,0.7689,0.7725,0.775,0.7755,0.7763,0.7756,0.7767,0.7777,0.7776,0.7823,0.7812,0.7818,0.7831,0.7878,0.7879,0.7881,0.7887,0.789,0.7893,0,0,0,0,0,0,0.766,0.7684,0.7685,0.7715,0.7731,0.7751,0.7764,0.7766,0.7783,0.7781,0.7789,0.7794,0.7819,0.7828,0.7816,0.7858,0.7849,0.7852,0.7852,0.7855,0.7857,0.7854,0.781,0,0,0,0,0,0.7664,0.7684,0.7703,0.7727,0.7736,0.7749,0.776,0.7765,0.7781,0.7787,0.7799,0.7814,0.7833,0.7844,0.7862,0.789,0.7893,0.7901,0.7904,0.7906,0.7908,0.7923,0.7927,0.7888,0.7888,0.7888,0,0,0.7672,0.7687,0.7699,0.7728,0.7741,0.776,0.7754,0.7775,0.7789,0.779,0.7815,0.7824,0.7842,0.7868,0.7881,0.7876,0.792,0.7908,0.7909,0.7911,0.7925,0.7929,0.7932,0.7889,0.7889,0.7889,0,0,0.7696,0.771,0.7731,0.7745,0.7765,0.7774,0.7779,0.7799,0.7805,0.7831,0.7832,0.7848,0.7879,0.7892,0.7902,0.7931,0.7931,0.7937,0.7949,0.7964,0.7967,0.7969,0.798,0.7983,0.7939,0.7939,0.7939,0,0.7702,0.7733,0.7742,0.7763,0.7776,0.7779,0.78,0.7812,0.7837,0.7845,0.784,0.7879,0.7891,0.7921,0.7928,0.7936,0.7942,0.7934,0.7966,0.7969,0.7971,0.7981,0.7985,0.794,0.794,0.7939,0.7939,0,0.774,0.7761,0.7776,0.7801,0.7815,0.7836,0.7847,0.786,0.7864,0.7873,0.7898,0.7913,0.7933,0.7941,0.7944,0.7971,0.7968,0.7964,0.7955,0.7975,0.7985,0.7989,0.794,0.794,0.794,0.794,0,0,0.7764,0.7795,0.78,0.7812,0.7834,0.785,0.7871,0.7893,0.7904,0.792,0.7938,0.7964,0.7961,0.7973,0.7978,0.7991,0.8013,0.7986,0.7986,0.799,0.8043,0.8045,0.8049,0.8013,0.8013,0.8014,0.8041,0,0.779,0.783,0.7839,0.7872,0.7891,0.7895,0.7913,0.7928,0.7937,0.7954,0.7963,0.7982,0.7977,0.7984,0.7997,0.8007,0.8023,0.8005,0.8028,0.8029,0.8023,0.8054,0.8057,0.8082,0.8045,0.8046,0.8046,0,0.7826,0.7845,0.788,0.7901,0.791,0.7926,0.7947,0.7963,0.798,0.7986,0.7999,0.8003,0.8024,0.8014,0.8043,0.803,0.804,0.8046,0.8048,0.805,0.8038,0.8057,0.809,0.8094,0.8052,0.8052,0.8051,0,0.784,0.7875,0.79,0.791,0.7935,0.7946,0.7957,0.7974,0.7986,0.8004,0.8012,0.8031,0.8041,0.8055,0.8064,0.8056,0.8092,0.8083,0.8096,0.8096,0.8103,0.8103,0.8138,0.811,0.811,0.811,0.811,0,0.7868,0.789,0.7907,0.7923,0.7947,0.7957,0.798,0.799,0.8005,0.8022,0.8026,0.8042,0.8052,0.8069,0.8075,0.8098,0.8102,0.8107,0.8108,0.8106,0.8106,0.8113,0.8111,0.8111,0.8111,0.811,0.811,0,0.7888,0.7901,0.7929,0.7951,0.7957,0.7973,0.7991,0.8006,0.8016,0.8037,0.8043,0.8057,0.8077,0.8087,0.8111,0.8115,0.8141,0.8141,0.8136,0.8136,0.8149,0.8148,0.819,0.8196,0.8164,0.8164,0.8165,0,0.7905,0.7922,0.7946,0.7958,0.797,0.7989,0.8002,0.8013,0.8026,0.8047,0.806,0.808,0.8097,0.8129,0.8141,0.8159,0.816,0.8174,0.8163,0.816,0.816,0.8159,0.816,0.8175,0.8176,0.8176,0.8176,0,0.7934,0.7939,0.7959,0.7981,0.7997,0.8014,0.8031,0.804,0.8053,0.8068,0.8089,0.8102,0.8128,0.8148,0.8168,0.8178,0.8179,0.818,0.8184,0.8182,0.8178,0.818,0.8141,0.8178,0.8178,0.8178,0.8178,0.8178,0.7952,0.7967,0.7987,0.8009,0.8023,0.8039,0.8054,0.8066,0.8084,0.8107,0.8112,0.8134,0.8151,0.8178,0.8188,0.8205,0.8202,0.8208,0.8209,0.8211,0.8211,0.8176,0.8209,0.8209,0.8209,0.8209,0.8209,0,0.7981,0.7994,0.8014,0.8038,0.8055,0.8056,0.8075,0.8089,0.8109,0.8125,0.8142,0.8167,0.8186,0.82,0.822,0.8231,0.8232,0.8235,0.8234,0.8237,0.8213,0.8207,0.8234,0.8234,0.8234,0.8234,0.8234,0.8234,0.7998,0.8024,0.8032,0.8064,0.8077,0.81,0.8111,0.8125,0.8138,0.8166,0.8183,0.8192,0.8207,0.8228,0.8246,0.825,0.8256,0.826,0.8263,0.8241,0.8238,0.8236,0.8231,0.8262,0.8262,0.8286,0.8286,0.8286]},{"header":{"parameterUnit":"m.s-1","parameterCategory":1,"la1":30.2991,"la2":30.254,"lo1":-89.0895,"lo2":-89.0444,"dy":0.0017,"dx":0.0017,"nx":28,"ny":28,"refTime":"2024-05-26T21:00:00:Z","depth":0,"parameterNumber":3,"parameterNumberName":"V-component_of_WINDS"},"data":[0,0,0,0,0,0,0,0,0,0,0,0,0,0,0,0,0,0,0,0,0,0,0,0,0,0,0,0,0,0,0,0,0,0,0,0,0,0,0,0,0,0,0,0,0,0,0,0,0,0,0,0,0,0,0,0,0,0,6.0142,6.0143,0,6.0203,6.0204,6.0204,6.0215,6.0215,6.0214,6.0214,6.0273,6.0275,6.0277,0,0,0,0,0,0,0,0,0,0,0,0,0,6.0034,6.0036,6.0142,6.0143,6.0143,6.0203,6.0204,6.0204,6.0216,6.0215,6.0214,6.0214,6.0272,6.0275,6.0277,0,0,0,0,0,0,0,0,0,0,0,0,0,6.0086,6.0036,6.0142,6.0156,6.0158,6.0203,6.0204,6.0205,6.0216,6.0215,6.0214,6.0213,6.0271,6.0274,6.0277,6.0311,0,0,6.0287,6.0288,0,0,0,0,0,0,0,0,6.0083,6.009,6.0153,6.0155,6.0158,6.0201,6.0187,6.024,6.0216,6.0194,6.0214,6.0213,6.0249,6.0254,6.0267,6.0313,6.0316,6.0287,6.0289,6.029,6.0291,0,0,0,0,0,0,0,6.008,6.0088,6.0166,6.0154,6.0157,6.0159,6.0166,6.0197,6.0225,6.0196,6.0197,6.0204,6.025,6.0264,6.0268,6.0317,6.0287,6.0289,6.0291,6.0293,6.0396,6.0397,0,0,0,0,0,0,6.0074,6.0085,6.0164,6.0168,6.0118,6.0162,6.0169,6.0188,6.0224,6.0229,6.0204,6.0204,6.0259,6.0265,6.0271,6.0314,6.029,6.0293,6.0295,6.0395,6.0396,6.0397,0,0,0,0,0,0,6.0071,6.0081,6.0161,6.0127,6.0137,6.0164,6.0185,6.0189,6.0203,6.0231,6.0236,6.0213,6.0259,6.0266,6.0301,6.0316,6.0294,6.0297,6.0394,6.0396,6.0397,6.0399,0,0,0,0,0,0,6.0068,6.008,6.0093,6.0127,6.0139,6.0192,6.0186,6.0191,6.0209,6.0209,6.0241,6.0245,6.0259,6.0297,6.0304,6.0319,6.0299,6.0393,6.0395,6.0396,6.0398,6.04,6.0402,0,0,0,0,0,6.0064,6.009,6.0093,6.0103,6.0156,6.0192,6.0199,6.0215,6.021,6.0223,6.0242,6.0244,6.0313,6.03,6.0309,6.0325,6.0392,6.0394,6.0396,6.0396,6.04,6.0402,0,0,0,0,0,0,6.0054,6.0094,6.0099,6.0136,6.0161,6.0194,6.0211,6.0217,6.0244,6.0242,6.026,6.0267,6.0302,6.0317,6.0302,6.0361,6.0352,6.0356,6.0349,6.0353,6.0355,6.035,6.0302,0,0,0,0,0,6.0057,6.0084,6.0117,6.0147,6.0159,6.0183,6.02,6.021,6.0236,6.0247,6.0267,6.0292,6.0319,6.0337,6.0363,6.04,6.0408,6.0416,6.0418,6.042,6.0423,6.0446,6.045,6.0404,6.0404,6.0404,0,0,6.0062,6.0087,6.0102,6.0145,6.0166,6.0194,6.0192,6.022,6.0241,6.025,6.0286,6.0302,6.0331,6.0368,6.0385,6.0381,6.0438,6.0423,6.0424,6.0426,6.0448,6.0453,6.0456,6.0406,6.0405,6.0405,0,0,6.0085,6.0106,6.0134,6.0156,6.0188,6.0204,6.0211,6.0244,6.0256,6.0292,6.0301,6.0325,6.0371,6.0392,6.0409,6.0443,6.0447,6.0451,6.0463,6.0485,6.0489,6.0492,6.0506,6.051,6.0454,6.0454,6.0454,0,6.0086,6.0129,6.0147,6.0177,6.0196,6.0208,6.0237,6.0256,6.0295,6.0308,6.0304,6.0364,6.0384,6.0427,6.0436,6.0448,6.0457,6.0447,6.0487,6.0491,6.0494,6.0507,6.0512,6.0455,6.0455,6.0455,6.0455,0,6.013,6.016,6.0178,6.0218,6.0239,6.0268,6.0291,6.031,6.032,6.0337,6.0374,6.0399,6.0432,6.0443,6.0451,6.0488,6.0485,6.0484,6.0476,6.0498,6.0511,6.0516,6.0455,6.0455,6.0455,6.0455,0,0,6.0147,6.0198,6.0205,6.0224,6.0262,6.0285,6.0315,6.0349,6.0366,6.0392,6.0419,6.0459,6.0459,6.0478,6.0489,6.0509,6.0536,6.0506,6.0507,6.0511,6.058,6.0581,6.0586,6.054,6.0541,6.0542,6.0578,0,6.0175,6.023,6.0249,6.0295,6.0323,6.0336,6.0363,6.0389,6.0406,6.0432,6.0451,6.048,6.0477,6.0489,6.0509,6.0529,6.055,6.0526,6.0564,6.0565,6.0557,6.0593,6.0593,6.0626,6.0583,6.0584,6.0584,0,6.0215,6.0245,6.0294,6.0331,6.0343,6.0367,6.0401,6.0426,6.0456,6.0467,6.049,6.0501,6.0533,6.0524,6.0569,6.0552,6.0569,6.0582,6.0583,6.0587,6.0576,6.0598,6.0637,6.0642,6.0592,6.0591,6.0591,0,6.0224,6.0276,6.0313,6.0329,6.0372,6.0388,6.0407,6.0437,6.0457,6.0486,6.05,6.0532,6.055,6.0575,6.0594,6.0585,6.0638,6.063,6.0649,6.0648,6.0659,6.0658,6.0701,6.0669,6.0669,6.0669,6.0669,0,6.0253,6.0283,6.0318,6.034,6.0375,6.0396,6.0429,6.0449,6.0476,6.0502,6.0515,6.054,6.0563,6.0591,6.0606,6.0643,6.065,6.066,6.0664,6.066,6.0658,6.0671,6.0669,6.067,6.067,6.0669,6.0669,0,6.0269,6.0293,6.0334,6.0373,6.0384,6.0407,6.044,6.0463,6.0482,6.0516,6.0525,6.0554,6.0588,6.061,6.0652,6.0662,6.0702,6.0705,6.0692,6.0694,6.0712,6.0711,6.0765,6.0774,6.0735,6.0736,6.0736,0,6.0286,6.031,6.0352,6.0372,6.0391,6.0422,6.0444,6.0466,6.0488,6.0526,6.0545,6.058,6.0609,6.0663,6.0687,6.072,6.0724,6.0741,6.0729,6.0725,6.0726,6.0725,6.0728,6.0743,6.0743,6.0744,6.0744,0,6.0315,6.0327,6.0358,6.0394,6.042,6.0449,6.0477,6.0493,6.052,6.0544,6.058,6.0603,6.0648,6.0683,6.0719,6.0738,6.0746,6.0748,6.0754,6.075,6.0742,6.0748,6.0698,6.0746,6.0746,6.0746,6.0746,6.0746,6.0333,6.0356,6.039,6.0424,6.0449,6.0477,6.0501,6.0524,6.0554,6.0594,6.0605,6.0643,6.0675,6.0724,6.0744,6.0774,6.0772,6.0781,6.0783,6.0785,6.0786,6.0737,6.078,6.078,6.078,6.078,6.078,0,6.0364,6.0387,6.0419,6.046,6.0488,6.0495,6.0528,6.055,6.0584,6.0614,6.0643,6.0685,6.072,6.0749,6.0785,6.0803,6.0808,6.0812,6.0811,6.0815,6.0785,6.0777,6.0808,6.0808,6.0808,6.0808,6.0808,6.0808,6.0383,6.0422,6.0439,6.0491,6.0514,6.0552,6.0571,6.0596,6.062,6.0667,6.0697,6.0716,6.0746,6.0784,6.0817,6.0825,6.0837,6.0841,6.0849,6.082,6.0817,6.0814,6.0807,6.0843,6.0844,6.0877,6.0878,6.0878]}]]